TRADE65 KSAN-KMRY

Flight info

Callsign TRADE65
Flight time 0h 53m
Altitude 42000
Route PADRZ2 IKAYE RZS J126 ROBIE WIGGL
Aircraft C750/M-SBDE3FGHRWXY/S

Departure

Time 2026-05-06 02:49
Airport San Diego International Airport (KSAN)

Arrival

Time 2026-05-06 03:42
Airport Monterey Regional Airport (KMRY)
Time Latitude Longitude Altitude Speed Heading
2026-05-06 02:27 32.73326 -117.17746 16 ft 0 kts 304°
2026-05-06 02:40 32.73327 -117.17748 15 ft 0 kts 304°
2026-05-06 02:40 32.73329 -117.17752 15 ft 1 kts 304°
2026-05-06 02:41 32.73337 -117.17765 16 ft 3 kts 304°
2026-05-06 02:41 32.73348 -117.17785 14 ft 3 kts 304°
2026-05-06 02:41 32.73362 -117.17809 16 ft 3 kts 304°
2026-05-06 02:41 32.73374 -117.17832 14 ft 3 kts 304°
2026-05-06 02:42 32.73386 -117.17853 13 ft 3 kts 304°
2026-05-06 02:42 32.73396 -117.17871 16 ft 2 kts 304°
2026-05-06 02:42 32.73397 -117.17888 14 ft 3 kts 263°
2026-05-06 02:42 32.73381 -117.17931 15 ft 8 kts 228°
2026-05-06 02:43 32.73364 -117.17944 15 ft 0 kts 198°
2026-05-06 02:46 32.73355 -117.17947 16 ft 4 kts 198°
2026-05-06 02:46 32.73286 -117.17972 15 ft 17 kts 196°
2026-05-06 02:47 32.73213 -117.17905 12 ft 15 kts 104°
2026-05-06 02:47 32.73187 -117.17793 16 ft 13 kts 105°
2026-05-06 02:47 32.73164 -117.17694 14 ft 12 kts 108°
2026-05-06 02:47 32.73138 -117.17599 13 ft 12 kts 108°
2026-05-06 02:48 32.73101 -117.17554 12 ft 0 kts 145°
2026-05-06 02:48 32.73100 -117.17553 12 ft 3 kts 145°
2026-05-06 02:48 32.73040 -117.17528 14 ft 15 kts 198°
2026-05-06 02:49 32.73055 -117.17723 12 ft 56 kts 286°
2026-05-06 02:49 32.73251 -117.18529 30 ft 136 kts 287°
2026-05-06 02:49 32.73548 -117.19727 277 ft 168 kts 287°
2026-05-06 02:49 32.73922 -117.21174 701 ft 191 kts 290°
2026-05-06 02:50 32.74623 -117.22516 1454 ft 187 kts 304°
2026-05-06 02:50 32.75355 -117.23771 2359 ft 182 kts 303°
2026-05-06 02:50 32.76061 -117.25024 3106 ft 188 kts 303°
2026-05-06 02:50 32.76827 -117.26374 3507 ft 210 kts 303°
2026-05-06 02:51 32.77696 -117.27899 3915 ft 231 kts 304°
2026-05-06 02:51 32.78634 -117.29546 4331 ft 248 kts 304°
2026-05-06 02:51 32.79624 -117.31285 4809 ft 256 kts 304°
2026-05-06 02:51 32.80708 -117.32955 5442 ft 256 kts 308°
2026-05-06 02:52 32.81784 -117.34634 6035 ft 260 kts 307°
2026-05-06 02:52 32.82875 -117.36364 6630 ft 264 kts 307°
2026-05-06 02:52 32.83992 -117.38095 7306 ft 263 kts 308°
2026-05-06 02:52 32.85115 -117.39825 7948 ft 268 kts 308°
2026-05-06 02:53 32.86268 -117.41614 7997 ft 266 kts 308°
2026-05-06 02:53 32.87414 -117.43397 7983 ft 272 kts 308°
2026-05-06 02:53 32.88560 -117.45179 7988 ft 269 kts 308°
2026-05-06 02:53 32.89712 -117.46965 7987 ft 270 kts 308°
2026-05-06 02:54 32.90850 -117.48735 8000 ft 267 kts 309°
2026-05-06 02:54 32.92007 -117.50534 8750 ft 270 kts 309°
2026-05-06 02:54 32.93144 -117.52304 9838 ft 273 kts 308°
2026-05-06 02:54 32.94331 -117.54150 10236 ft 294 kts 308°
2026-05-06 02:55 32.95643 -117.56190 10206 ft 326 kts 308°
2026-05-06 02:55 32.97068 -117.58414 10217 ft 343 kts 308°
2026-05-06 02:55 32.98436 -117.60559 10190 ft 307 kts 308°
2026-05-06 02:55 32.99679 -117.62503 10181 ft 290 kts 309°
2026-05-06 02:56 33.00918 -117.64431 10175 ft 303 kts 309°
2026-05-06 02:56 33.02261 -117.66520 10180 ft 332 kts 309°
2026-05-06 02:56 33.03687 -117.68754 10715 ft 336 kts 309°
2026-05-06 02:56 33.05038 -117.70884 12094 ft 311 kts 308°
2026-05-06 02:57 33.06372 -117.72914 12875 ft 314 kts 312°
2026-05-06 02:57 33.08012 -117.74677 13489 ft 319 kts 321°
2026-05-06 02:57 33.09730 -117.76345 14232 ft 320 kts 321°
2026-05-06 02:57 33.11440 -117.78068 14894 ft 324 kts 320°
2026-05-06 02:58 33.13154 -117.79844 15499 ft 330 kts 320°
2026-05-06 02:58 33.14894 -117.81626 16229 ft 331 kts 321°
2026-05-06 02:58 33.16656 -117.83408 16918 ft 334 kts 321°
2026-05-06 02:58 33.18439 -117.85219 17580 ft 339 kts 320°
2026-05-06 02:59 33.20188 -117.87147 18200 ft 345 kts 315°
2026-05-06 02:59 33.21889 -117.89204 18858 ft 348 kts 316°
2026-05-06 02:59 33.23621 -117.91237 19544 ft 351 kts 316°
2026-05-06 02:59 33.25364 -117.93296 20218 ft 354 kts 316°
2026-05-06 03:00 33.27103 -117.95380 20963 ft 355 kts 316°
2026-05-06 03:00 33.28848 -117.97473 21655 ft 357 kts 316°
2026-05-06 03:00 33.30619 -117.99584 22275 ft 362 kts 316°
2026-05-06 03:00 33.32409 -118.01717 22941 ft 364 kts 316°
2026-05-06 03:01 33.34208 -118.03870 23643 ft 366 kts 316°
2026-05-06 03:01 33.35992 -118.06008 24135 ft 370 kts 315°
2026-05-06 03:01 33.37818 -118.08194 24703 ft 372 kts 316°
2026-05-06 03:01 33.39667 -118.10405 25110 ft 379 kts 317°
2026-05-06 03:02 33.41531 -118.12640 25679 ft 381 kts 316°
2026-05-06 03:02 33.43410 -118.14896 26203 ft 384 kts 316°
2026-05-06 03:02 33.45305 -118.17170 26765 ft 387 kts 316°
2026-05-06 03:02 33.47207 -118.19454 27365 ft 388 kts 316°
2026-05-06 03:03 33.49124 -118.21757 27864 ft 393 kts 316°
2026-05-06 03:03 33.51061 -118.24087 28420 ft 395 kts 315°
2026-05-06 03:03 33.53007 -118.26430 28993 ft 398 kts 315°
2026-05-06 03:03 33.54969 -118.28792 29497 ft 402 kts 315°
2026-05-06 03:04 33.56953 -118.31182 29866 ft 409 kts 317°
2026-05-06 03:04 33.58984 -118.33629 30178 ft 417 kts 317°
2026-05-06 03:04 33.61026 -118.36096 30658 ft 418 kts 317°
2026-05-06 03:04 33.63081 -118.38579 31119 ft 419 kts 316°
2026-05-06 03:05 33.65142 -118.41068 31565 ft 422 kts 316°
2026-05-06 03:05 33.67216 -118.43576 31983 ft 425 kts 316°
2026-05-06 03:05 33.69304 -118.46104 32405 ft 427 kts 316°
2026-05-06 03:05 33.71403 -118.48646 32818 ft 430 kts 316°
2026-05-06 03:06 33.73517 -118.51208 33231 ft 433 kts 316°
2026-05-06 03:06 33.75650 -118.53794 33666 ft 438 kts 317°
2026-05-06 03:06 33.77801 -118.56405 34189 ft 441 kts 316°
2026-05-06 03:06 33.79966 -118.59037 34636 ft 444 kts 316°
2026-05-06 03:07 33.82146 -118.61687 35058 ft 447 kts 316°
2026-05-06 03:07 33.84338 -118.64354 35485 ft 450 kts 316°
2026-05-06 03:07 33.86550 -118.67047 35895 ft 453 kts 316°
2026-05-06 03:07 33.88764 -118.69746 36376 ft 455 kts 315°
2026-05-06 03:08 33.90997 -118.72469 36772 ft 459 kts 315°
2026-05-06 03:08 33.93253 -118.75222 37048 ft 465 kts 315°
2026-05-06 03:08 33.95535 -118.78009 37417 ft 469 kts 315°
2026-05-06 03:08 33.97802 -118.80781 37812 ft 472 kts 315°
2026-05-06 03:09 34.00148 -118.83651 38197 ft 476 kts 315°
2026-05-06 03:09 34.02445 -118.86465 38571 ft 480 kts 315°
2026-05-06 03:09 34.04795 -118.89345 38891 ft 483 kts 314°
2026-05-06 03:09 34.07154 -118.92238 39196 ft 485 kts 314°
2026-05-06 03:10 34.09529 -118.95155 39479 ft 489 kts 315°
2026-05-06 03:10 34.11920 -118.98092 39684 ft 493 kts 315°
2026-05-06 03:10 34.14226 -119.01168 39929 ft 496 kts 309°
2026-05-06 03:10 34.16153 -119.04629 40189 ft 499 kts 302°
2026-05-06 03:11 34.17865 -119.08279 40430 ft 501 kts 300°
2026-05-06 03:11 34.19568 -119.11962 40647 ft 502 kts 301°
2026-05-06 03:11 34.21358 -119.15596 40854 ft 504 kts 302°
2026-05-06 03:11 34.23176 -119.19220 41050 ft 506 kts 302°
2026-05-06 03:12 34.24938 -119.22879 41470 ft 500 kts 301°
2026-05-06 03:12 34.26666 -119.26535 41627 ft 502 kts 301°
2026-05-06 03:12 34.28427 -119.30179 41808 ft 503 kts 302°
2026-05-06 03:12 34.30215 -119.33829 41977 ft 505 kts 302°
2026-05-06 03:13 34.31989 -119.37498 42143 ft 506 kts 301°
2026-05-06 03:13 34.33754 -119.41195 42300 ft 507 kts 301°
2026-05-06 03:13 34.35527 -119.44893 42435 ft 509 kts 301°
2026-05-06 03:13 34.37314 -119.48591 42556 ft 510 kts 301°
2026-05-06 03:14 34.39101 -119.52301 42667 ft 511 kts 301°
2026-05-06 03:14 34.42672 -119.59769 42821 ft 514 kts 301°
2026-05-06 03:14 34.44469 -119.63516 42924 ft 514 kts 301°
2026-05-06 03:15 34.46262 -119.67261 43006 ft 513 kts 301°
2026-05-06 03:15 34.48028 -119.70963 43003 ft 501 kts 301°
2026-05-06 03:15 34.49888 -119.74490 42991 ft 497 kts 307°
2026-05-06 03:16 34.54825 -119.80377 43010 ft 502 kts 324°
2026-05-06 03:16 34.60606 -119.84998 43049 ft 499 kts 327°
2026-05-06 03:17 34.66313 -119.89790 43041 ft 499 kts 325°
2026-05-06 03:17 34.72085 -119.94530 43040 ft 498 kts 326°
2026-05-06 03:18 34.77835 -119.99306 43047 ft 503 kts 326°
2026-05-06 03:18 34.83611 -120.04103 43061 ft 503 kts 327°
2026-05-06 03:19 34.89356 -120.08873 43069 ft 503 kts 326°
2026-05-06 03:19 34.95115 -120.13680 43066 ft 500 kts 327°
2026-05-06 03:20 35.03745 -120.20881 43040 ft 502 kts 327°
2026-05-06 03:20 35.06642 -120.23304 42396 ft 506 kts 327°
2026-05-06 03:20 35.09513 -120.25707 41741 ft 492 kts 328°
2026-05-06 03:21 35.12301 -120.28044 40982 ft 481 kts 328°
2026-05-06 03:21 35.15039 -120.30340 40246 ft 474 kts 328°
2026-05-06 03:21 35.17750 -120.32613 39547 ft 471 kts 329°
2026-05-06 03:21 35.20450 -120.34879 38874 ft 471 kts 329°
2026-05-06 03:22 35.23150 -120.37148 38092 ft 472 kts 330°
2026-05-06 03:22 35.24949 -120.38661 37557 ft 475 kts 330°
2026-05-06 03:22 35.28613 -120.41745 36494 ft 480 kts 331°
2026-05-06 03:22 35.31373 -120.44071 35750 ft 482 kts 331°
2026-05-06 03:23 35.34139 -120.46404 35029 ft 485 kts 332°
2026-05-06 03:23 35.36919 -120.48750 34328 ft 486 kts 332°
2026-05-06 03:23 35.39704 -120.51103 33558 ft 488 kts 333°
2026-05-06 03:23 35.42511 -120.53475 32780 ft 490 kts 333°
2026-05-06 03:24 35.44345 -120.55034 32268 ft 475 kts 333°
2026-05-06 03:24 35.47059 -120.57345 31520 ft 484 kts 333°
2026-05-06 03:24 35.49950 -120.59578 30784 ft 488 kts 336°
2026-05-06 03:24 35.52824 -120.61751 30061 ft 490 kts 334°
2026-05-06 03:25 35.55672 -120.64120 29224 ft 499 kts 332°
2026-05-06 03:25 35.58522 -120.66595 28437 ft 502 kts 332°
2026-05-06 03:25 35.61413 -120.68970 28098 ft 497 kts 333°
2026-05-06 03:25 35.65195 -120.71987 28089 ft 484 kts 333°
2026-05-06 03:26 35.69847 -120.75874 28093 ft 481 kts 332°
2026-05-06 03:26 35.75376 -120.80421 28081 ft 476 kts 333°
2026-05-06 03:27 35.80864 -120.84958 28077 ft 474 kts 332°
2026-05-06 03:27 35.86329 -120.89488 28072 ft 473 kts 333°
2026-05-06 03:28 35.91776 -120.94002 27486 ft 461 kts 332°
2026-05-06 03:28 35.94460 -120.96239 26773 ft 471 kts 332°
2026-05-06 03:28 35.97161 -120.98472 26032 ft 475 kts 332°
2026-05-06 03:29 35.99917 -121.00760 25302 ft 480 kts 331°
2026-05-06 03:29 36.02667 -121.03062 24601 ft 467 kts 331°
2026-05-06 03:29 36.05387 -121.05334 23915 ft 474 kts 331°
2026-05-06 03:29 36.08160 -121.07636 23152 ft 475 kts 331°
2026-05-06 03:30 36.10853 -121.09881 22366 ft 463 kts 330°
2026-05-06 03:30 36.13493 -121.12103 21547 ft 446 kts 330°
2026-05-06 03:30 36.15982 -121.14192 20591 ft 420 kts 330°
2026-05-06 03:30 36.18363 -121.16174 19624 ft 409 kts 330°
2026-05-06 03:31 36.20729 -121.18138 18572 ft 410 kts 330°
2026-05-06 03:31 36.23100 -121.20128 17426 ft 413 kts 329°
2026-05-06 03:31 36.25489 -121.22139 16291 ft 416 kts 329°
2026-05-06 03:31 36.27811 -121.24098 15170 ft 375 kts 329°
2026-05-06 03:32 36.29814 -121.25798 14091 ft 330 kts 330°
2026-05-06 03:32 36.31661 -121.27336 12941 ft 312 kts 331°
2026-05-06 03:32 36.33435 -121.28810 11805 ft 302 kts 330°
2026-05-06 03:32 36.35095 -121.30347 10679 ft 295 kts 320°
2026-05-06 03:33 36.36308 -121.32273 9571 ft 281 kts 311°
2026-05-06 03:33 36.37467 -121.34199 8523 ft 276 kts 311°
2026-05-06 03:33 36.38629 -121.36092 8009 ft 268 kts 310°
2026-05-06 03:33 36.39645 -121.37786 7989 ft 228 kts 310°
2026-05-06 03:34 36.40594 -121.39360 7721 ft 230 kts 310°
2026-05-06 03:34 36.41531 -121.40905 6763 ft 223 kts 309°
2026-05-06 03:34 36.42442 -121.42417 6097 ft 216 kts 309°
2026-05-06 03:34 36.43274 -121.43803 6090 ft 188 kts 309°
2026-05-06 03:35 36.44062 -121.45108 6100 ft 188 kts 309°
2026-05-06 03:35 36.44845 -121.46407 6098 ft 188 kts 308°
2026-05-06 03:35 36.45637 -121.47722 6119 ft 193 kts 309°
2026-05-06 03:35 36.46417 -121.49021 6096 ft 182 kts 308°
2026-05-06 03:36 36.47121 -121.50342 6049 ft 186 kts 299°
2026-05-06 03:36 36.47625 -121.51824 5829 ft 186 kts 294°
2026-05-06 03:36 36.48110 -121.53306 5648 ft 184 kts 295°
2026-05-06 03:36 36.48610 -121.54767 5460 ft 183 kts 295°
2026-05-06 03:37 36.49109 -121.56220 5275 ft 182 kts 296°
2026-05-06 03:37 36.49603 -121.57664 5079 ft 181 kts 296°
2026-05-06 03:37 36.50092 -121.59101 4897 ft 181 kts 295°
2026-05-06 03:37 36.50580 -121.60528 4703 ft 179 kts 295°
2026-05-06 03:38 36.51067 -121.61950 4618 ft 178 kts 296°
2026-05-06 03:38 36.51560 -121.63356 4629 ft 178 kts 298°
2026-05-06 03:38 36.52050 -121.64785 4624 ft 184 kts 296°
2026-05-06 03:38 36.52542 -121.66245 4630 ft 183 kts 296°
2026-05-06 03:39 36.53048 -121.67719 4350 ft 190 kts 296°
2026-05-06 03:39 36.53596 -121.69294 3502 ft 205 kts 296°
2026-05-06 03:39 36.54158 -121.70947 2631 ft 209 kts 294°
2026-05-06 03:39 36.54685 -121.72533 2379 ft 188 kts 295°
2026-05-06 03:40 36.55176 -121.73976 2092 ft 175 kts 296°
2026-05-06 03:40 36.55631 -121.75339 1783 ft 161 kts 296°
2026-05-06 03:40 36.56045 -121.76552 1473 ft 147 kts 296°
2026-05-06 03:40 36.56432 -121.77693 1342 ft 140 kts 293°
2026-05-06 03:41 36.56815 -121.78800 1157 ft 140 kts 293°
2026-05-06 03:41 36.57176 -121.79899 932 ft 131 kts 291°
2026-05-06 03:41 36.57490 -121.80870 739 ft 115 kts 294°
2026-05-06 03:41 36.57783 -121.81790 571 ft 115 kts 293°
2026-05-06 03:42 36.58111 -121.82683 383 ft 111 kts 292°
2026-05-06 03:42 36.58409 -121.83553 211 ft 105 kts 290°
2026-05-06 03:42 36.58615 -121.84201 209 ft 51 kts 294°
2026-05-06 03:42 36.58709 -121.84465 206 ft 17 kts 292°
2026-05-06 03:43 36.58719 -121.84584 213 ft 11 kts 229°
2026-05-06 03:43 36.58701 -121.84603 210 ft 2 kts 226°
2026-05-06 03:43 36.58691 -121.84616 209 ft 2 kts 231°
2026-05-06 03:43 36.58690 -121.84650 206 ft 8 kts 292°
2026-05-06 03:44 36.58727 -121.84757 211 ft 20 kts 293°
2026-05-06 03:44 36.58796 -121.84962 212 ft 30 kts 292°
2026-05-06 03:44 36.58875 -121.85196 207 ft 29 kts 292°
2026-05-06 03:44 36.58877 -121.85370 209 ft 8 kts 277°
2026-05-06 03:45 36.58892 -121.85417 207 ft 0 kts 291°